Dades meteomassalio
Diari Summary for Juny 1, 2017 Units:  Metric    English   Both
« Previous Day
Next Day »
Diari Semanal Mensual Anual Personalitzat
  Maxima: Minima: Mijana:
Temperatura: -17.8 °C -10.9 °C -5.4 °C
Rosada: -17.8 °C -12.6 °C -10.7 °C
Humitat: Humidity % 26 % 58 %
Velocitat del vent: 0 km/h 0 km/h 8.5 km/h
Racha vent: 0 km/h - -
Vent:- - SE
Pressio: 0 hPa 34371.3 hPa -
Pluja: 0 mm    
Historical Graphs
 
 
Tabular Data for Juny 1, 2017
Time Temperature Dew Point Pressure Wind Wind Speed Wind Gust Humidity Rainfall Rate (Hourly) solar Conditions
-17.8 °C -17.8 °C 0 hPa Calm     Humidity % 0 mm SolarRadiationWatts/m^2 W/m2 Conditions
00:03 -6.5 °C -10.7 °C 34476.3 hPa Calm     62 % 0 mm 0.0 W/m2 CLR
00:08 -6.6 °C -10.6 °C 34476.3 hPa Calm     63 % 0 mm 0.0 W/m2 CLR
00:13 -6.6 °C -10.8 °C 34476.3 hPa Calm     62 % 0 mm 0.0 W/m2 CLR
00:18 -6.7 °C -10.9 °C 34476.3 hPa Calm     62 % 0 mm 0.0 W/m2 CLR
00:23 -6.8 °C -10.8 °C 34476.3 hPa Calm     63 % 0 mm 0.0 W/m2 CLR
00:28 -6.9 °C -10.8 °C 34486.4 hPa Calm     64 % 0 mm 0.0 W/m2 CLR
00:33 -6.9 °C -10.8 °C 34476.3 hPa Calm     64 % 0 mm 0.0 W/m2 CLR
00:38 -6.9 °C -10.8 °C 34486.4 hPa Calm     64 % 0 mm 0.0 W/m2 CLR
00:43 -7.1 °C -10.8 °C 34486.4 hPa Calm     65 % 0 mm 0.0 W/m2 CLR
00:48 -7.1 °C -10.8 °C 34486.4 hPa Calm     65 % 0 mm 0.0 W/m2 CLR
00:53 -7.1 °C -10.9 °C 34486.4 hPa Calm     65 % 0 mm 0.0 W/m2 CLR
00:58 -7.2 °C -10.8 °C 34486.4 hPa Calm     66 % 0 mm 0.0 W/m2 CLR
01:03 -7.3 °C -10.9 °C 34486.4 hPa Calm     66 % 0 mm 0.0 W/m2 CLR
01:08 -7.4 °C -11.2 °C 34486.4 hPa Calm     65 % 0 mm 0.0 W/m2 CLR
01:13 -7.4 °C -11.1 °C 34486.4 hPa Calm     66 % 0 mm 0.0 W/m2 CLR
01:18 -7.6 °C -11.2 °C 34486.4 hPa Calm     66 % 0 mm 0.0 W/m2 CLR
01:23 -7.6 °C -11.1 °C 34486.4 hPa Calm     67 % 0 mm 0.0 W/m2 CLR
01:28 -7.7 °C -11.2 °C 34486.4 hPa Calm     67 % 0 mm 0.0 W/m2 CLR
01:33 -7.7 °C -11.2 °C 34486.4 hPa Calm     67 % 0 mm 0.0 W/m2 CLR
01:38 -7.8 °C -11.2 °C 34486.4 hPa Calm     67 % 0 mm 0.0 W/m2 CLR
01:43 -7.9 °C -11.2 °C 34486.4 hPa Calm     68 % 0 mm 0.0 W/m2 CLR
01:44 -7.9 °C -11.2 °C 34496.6 hPa Calm     68 % 0 mm 0.0 W/m2 CLR
01:49 -8 °C -11.2 °C 34486.4 hPa Calm     69 % 0 mm 0.0 W/m2 CLR
01:54 -8.2 °C -11.3 °C 34486.4 hPa Calm     69 % 0 mm 0.0 W/m2 CLR
01:59 -8.3 °C -11.3 °C 34486.4 hPa Calm     70 % 0 mm 0.0 W/m2 CLR
02:04 -8.4 °C -11.3 °C 34486.4 hPa Calm     71 % 0 mm 0.0 W/m2 CLR
02:09 -8.5 °C -11.3 °C 34486.4 hPa Calm     72 % 0 mm 0.0 W/m2 CLR
02:14 -8.6 °C -11.3 °C 34486.4 hPa Calm     73 % 0 mm 0.0 W/m2 CLR
02:19 -8.7 °C -11.2 °C 34486.4 hPa Calm     74 % 0 mm 0.0 W/m2 CLR
02:24 -8.8 °C -11.2 °C 34486.4 hPa Calm     75 % 0 mm 0.0 W/m2 CLR
02:29 -8.8 °C -11.3 °C 34486.4 hPa Calm     75 % 0 mm 0.0 W/m2 CLR
02:34 -8.9 °C -11.3 °C 34486.4 hPa Calm     75 % 0 mm 0.0 W/m2 CLR
02:39 -8.9 °C -11.4 °C 34486.4 hPa Calm     75 % 0 mm 0.0 W/m2 CLR
02:44 -9 °C -11.6 °C 34486.4 hPa Calm     74 % 0 mm 0.0 W/m2 CLR
02:49 -9.1 °C -11.6 °C 34486.4 hPa Calm     75 % 0 mm 0.0 W/m2 CLR
02:54 -9.2 °C -11.6 °C 34486.4 hPa Calm     76 % 0 mm 0.0 W/m2 CLR
02:59 -9.2 °C -11.6 °C 34486.4 hPa Calm     76 % 0 mm 0.0 W/m2 CLR
03:04 -9.3 °C -11.5 °C 34486.4 hPa Calm     77 % 0 mm 0.0 W/m2 CLR
03:09 -9.3 °C -11.6 °C 34486.4 hPa Calm     77 % 0 mm 0.0 W/m2 CLR
03:14 -9.3 °C -11.5 °C 34486.4 hPa Calm     78 % 0 mm 0.0 W/m2 CLR
03:19 -9.3 °C -11.5 °C 34476.3 hPa Calm     78 % 0 mm 0.0 W/m2 CLR
03:24 -9.4 °C -11.5 °C 34476.3 hPa Calm     78 % 0 mm 0.0 W/m2 CLR
03:29 -9.4 °C -11.7 °C 34486.4 hPa Calm     77 % 0 mm 0.0 W/m2 CLR
03:34 -9.6 °C -11.8 °C 34486.4 hPa Calm     77 % 0 mm 0.0 W/m2 CLR
03:39 -9.6 °C -11.7 °C 34486.4 hPa Calm     78 % 0 mm 0.0 W/m2 CLR
03:44 -9.7 °C -11.7 °C 34486.4 hPa Calm     79 % 0 mm 0.0 W/m2 CLR
03:49 -9.8 °C -11.8 °C 34486.4 hPa Calm     79 % 0 mm 0.0 W/m2 CLR
03:54 -9.8 °C -11.8 °C 34486.4 hPa Calm     79 % 0 mm 0.0 W/m2 CLR
03:59 -9.9 °C -11.9 °C 34476.3 hPa Calm     79 % 0 mm 0.0 W/m2 CLR
04:04 -9.9 °C -11.8 °C 34476.3 hPa Calm     80 % 0 mm 0.0 W/m2 CLR
04:09 -9.9 °C -11.7 °C 34476.3 hPa Calm     81 % 0 mm 0.0 W/m2 CLR
04:14 -9.8 °C -11.6 °C 34476.3 hPa Calm     81 % 0 mm 0.0 W/m2 CLR
04:19 -9.9 °C -11.8 °C 34476.3 hPa Calm     80 % 0 mm 0.0 W/m2 CLR
04:24 -9.9 °C -11.8 °C 34476.3 hPa Calm     80 % 0 mm 0.0 W/m2 CLR
04:29 -10 °C -11.9 °C 34476.3 hPa Calm     80 % 0 mm 0.0 W/m2 CLR
04:34 -10.1 °C -11.9 °C 34476.3 hPa Calm     80 % 0 mm 0.0 W/m2 CLR
04:39 -10.1 °C -11.9 °C 34476.3 hPa Calm     81 % 0 mm 0.0 W/m2 CLR
04:44 -10.1 °C -11.9 °C 34476.3 hPa Calm     81 % 0 mm 0.0 W/m2 CLR
04:49 -10.2 °C -12.1 °C 34476.3 hPa Calm     80 % 0 mm 0.0 W/m2 CLR
04:54 -10.2 °C -12.1 °C 34476.3 hPa Calm     81 % 0 mm 0.0 W/m2 CLR
04:59 -10.3 °C -11.9 °C 34476.3 hPa Calm     82 % 0 mm 0.0 W/m2 CLR
05:04 -10.3 °C -12 °C 34476.3 hPa Calm     82 % 0 mm 0.0 W/m2 CLR
05:09 -10.3 °C -12 °C 34476.3 hPa Calm     82 % 0 mm 0.0 W/m2 CLR
05:14 -10.4 °C -12.1 °C 34476.3 hPa Calm     82 % 0 mm 0.0 W/m2 CLR
05:19 -10.5 °C -12.2 °C 34476.3 hPa Calm     82 % 0 mm 0.0 W/m2 CLR
05:24 -10.5 °C -12.1 °C 34476.3 hPa Calm     83 % 0 mm 0.0 W/m2 CLR
05:29 -10.6 °C -12.2 °C 34476.3 hPa Calm     83 % 0 mm 0.0 W/m2 CLR
05:34 -10.6 °C -12.2 °C 34476.3 hPa Calm     83 % 0 mm 0.0 W/m2 CLR
05:39 -10.7 °C -12.2 °C 34476.3 hPa Calm     83 % 0 mm 0.0 W/m2 CLR
05:44 -10.7 °C -12.2 °C 34476.3 hPa Calm     84 % 0 mm 0.0 W/m2 CLR
05:49 -10.7 °C -12.2 °C 34476.3 hPa Calm     84 % 0 mm 0.0 W/m2 CLR
05:54 -10.7 °C -12.1 °C 34476.3 hPa Calm     85 % 0 mm 0.0 W/m2 CLR
05:59 -10.7 °C -12.1 °C 34476.3 hPa Calm     85 % 0 mm 0.0 W/m2 CLR
06:04 -10.8 °C -12.2 °C 34476.3 hPa Calm     84 % 0 mm 0.0 W/m2 CLR
06:09 -10.8 °C -12.2 °C 34476.3 hPa Calm     84 % 0 mm 0.0 W/m2 CLR
06:14 -10.8 °C -12.3 °C 34476.3 hPa Calm     84 % 0 mm 0.0 W/m2 CLR
06:19 -10.9 °C -12.2 °C 34486.4 hPa Calm     85 % 0 mm 0.0 W/m2 OVC
06:24 -10.9 °C -12.2 °C 34486.4 hPa Calm     85 % 0 mm 0.0 W/m2 OVC
06:29 -10.9 °C -12.3 °C 34486.4 hPa Calm     85 % 0 mm 0.0 W/m2 OVC
06:34 -10.9 °C -12.1 °C 34486.4 hPa Calm     86 % 0 mm 5.0 W/m2 OVC
06:39 -10.8 °C -12.2 °C 34486.4 hPa Calm     85 % 0 mm 7.0 W/m2 BKN
06:44 -10.8 °C -12.1 °C 34486.4 hPa Calm     86 % 0 mm 11.0 W/m2 BKN
06:49 -10.8 °C -12.1 °C 34486.4 hPa Calm     86 % 0 mm 14.0 W/m2 BKN
06:54 -10.8 °C -12.1 °C 34486.4 hPa Calm     86 % 0 mm 16.0 W/m2 BKN
06:59 -10.7 °C -12.1 °C 34496.6 hPa Calm     85 % 0 mm 19.0 W/m2 BKN
07:04 -10.8 °C -12.1 °C 34496.6 hPa Calm     85 % 0 mm 25.0 W/m2 BKN
07:09 -10.7 °C -12.1 °C 34496.6 hPa Calm     85 % 0 mm 32.0 W/m2 BKN
07:14 -10.7 °C -12.1 °C 34496.6 hPa Calm     85 % 0 mm 44.0 W/m2 BKN
07:19 -10.6 °C -12 °C 34496.6 hPa Calm     85 % 0 mm 54.0 W/m2 SCT
07:24 -10.5 °C -11.8 °C 34510.1 hPa Calm     85 % 0 mm 65.0 W/m2 SCT
07:29 -10.3 °C -11.8 °C 34510.1 hPa Calm     84 % 0 mm 76.0 W/m2 FEW
07:34 -10.2 °C -11.8 °C 34510.1 hPa Calm     83 % 0 mm 91.0 W/m2 FEW
07:40 -10.1 °C -11.6 °C 34510.1 hPa Calm     83 % 0 mm 100.0 W/m2 CLR
07:45 -9.9 °C -11.6 °C 34510.1 hPa Calm     82 % 0 mm 118.0 W/m2 CLR
07:50 -9.7 °C -11.4 °C 34510.1 hPa Calm     81 % 0 mm 134.0 W/m2 CLR
07:55 -9.5 °C -11.5 °C 34510.1 hPa Calm     79 % 0 mm 153.0 W/m2 CLR
08:00 -9.3 °C -11.4 °C 34520.3 hPa Calm     78 % 0 mm 169.0 W/m2 CLR
08:05 -9.3 °C -11.4 °C 34510.1 hPa Calm     78 % 0 mm 185.0 W/m2 CLR
08:10 -9.1 °C -11.3 °C 34520.3 hPa Calm     77 % 0 mm 200.0 W/m2 CLR
08:15 -9 °C -11.2 °C 34510.1 hPa Calm     77 % 0 mm 220.0 W/m2 CLR
08:20 -8.8 °C -11.1 °C 34510.1 hPa Calm     77 % 0 mm 236.0 W/m2 CLR
08:25 -8.7 °C -11 °C 34510.1 hPa Calm     76 % 0 mm 251.0 W/m2 CLR
08:30 -8.4 °C -10.9 °C 34510.1 hPa Calm     75 % 0 mm 265.0 W/m2 CLR
08:35 -8.1 °C -10.8 °C 34510.1 hPa Calm     73 % 0 mm 279.0 W/m2 CLR
08:40 -7.8 °C -10.7 °C 34510.1 hPa Calm     72 % 0 mm 299.0 W/m2 CLR
08:45 -7.6 °C -10.6 °C 34510.1 hPa Calm     71 % 0 mm 311.0 W/m2 CLR
08:50 -7.3 °C -10.6 °C 34510.1 hPa Calm     69 % 0 mm 329.0 W/m2 CLR
08:55 -7.1 °C -10.4 °C 34510.1 hPa Calm     68 % 0 mm 343.0 W/m2 CLR
08:56 -7 °C -10.4 °C 34510.1 hPa Calm     68 % 0 mm 346.0 W/m2 CLR
09:01 -6.8 °C -10.3 °C 34510.1 hPa Calm     67 % 0 mm 364.0 W/m2 CLR
09:06 -6.7 °C -10.2 °C 34510.1 hPa Calm     67 % 0 mm 380.0 W/m2 CLR
09:11 -6.5 °C -10.2 °C 34510.1 hPa Calm     66 % 0 mm 394.0 W/m2 CLR
09:16 -6.3 °C -10.2 °C 34510.1 hPa Calm     64 % 0 mm 410.0 W/m2 CLR
09:21 -6.1 °C -10.2 °C 34510.1 hPa Calm     63 % 0 mm 425.0 W/m2 CLR
09:26 -5.9 °C -10.1 °C 34510.1 hPa Calm     62 % 0 mm 439.0 W/m2 CLR
09:31 -5.8 °C -10.1 °C 34510.1 hPa Calm     62 % 0 mm 455.0 W/m2 CLR
09:36 -5.7 °C -10.1 °C 34510.1 hPa Calm     61 % 0 mm 471.0 W/m2 CLR
09:41 -5.6 °C -10 °C 34510.1 hPa Calm     61 % 0 mm 485.0 W/m2 CLR
09:46 -5.6 °C -9.9 °C 34510.1 hPa Calm     61 % 0 mm 501.0 W/m2 CLR
09:51 -5.4 °C -9.9 °C 34510.1 hPa Calm     60 % 0 mm 515.0 W/m2 CLR
09:56 -5.3 °C -9.8 °C 34510.1 hPa Calm     60 % 0 mm 531.0 W/m2 CLR
10:01 -5.2 °C -9.8 °C 34510.1 hPa Calm     59 % 0 mm 543.0 W/m2 CLR
10:06 -5.1 °C -9.9 °C 34510.1 hPa ENE 9 km/h 9 km/h 58 % 0 mm 557.0 W/m2 CLR
10:11 -5.1 °C -9.9 °C 34510.1 hPa ENE 9 km/h 9 km/h 58 % 0 mm 571.0 W/m2 CLR
10:16 -4.9 °C -9.8 °C 34496.6 hPa ENE 9 km/h 9 km/h 58 % 0 mm 585.0 W/m2 CLR
10:21 -4.8 °C -9.9 °C 34496.6 hPa ENE 6 km/h 6 km/h 56 % 0 mm 598.0 W/m2 CLR
10:26 -4.8 °C -9.8 °C 34496.6 hPa ENE 11.9 km/h 11.9 km/h 57 % 0 mm 615.0 W/m2 CLR
10:31 -4.7 °C -9.8 °C 34496.6 hPa ENE 9 km/h   56 % 0 mm 629.0 W/m2 CLR
10:36 -4.6 °C -9.8 °C 34496.6 hPa Calm     56 % 0 mm 642.0 W/m2 CLR
10:41 -4.4 °C -9.7 °C 34496.6 hPa Calm     55 % 0 mm 652.0 W/m2 CLR
10:46 -4.3 °C -9.8 °C 34496.6 hPa Calm     54 % 0 mm 664.0 W/m2 CLR
10:51 -4.3 °C -9.8 °C 34486.4 hPa ESE 6 km/h   54 % 0 mm 682.0 W/m2 CLR
10:56 -4.2 °C -9.6 °C 34486.4 hPa ENE 7.7 km/h 7.7 km/h 55 % 0 mm 693.0 W/m2 CLR
11:01 -4 °C -9.5 °C 34486.4 hPa ENE 15 km/h 15 km/h 54 % 0 mm 705.0 W/m2 CLR
11:06 -3.9 °C -9.6 °C 34496.6 hPa ENE 9 km/h 9 km/h 53 % 0 mm 719.0 W/m2 CLR
11:11 -3.9 °C -9.6 °C 34486.4 hPa NNE 3.1 km/h 3.1 km/h 53 % 0 mm 722.0 W/m2 CLR
11:16 -3.9 °C -9.6 °C 34486.4 hPa Calm     53 % 0 mm 768.0 W/m2 CLR
11:21 -3.9 °C -9.8 °C 34486.4 hPa Calm     52 % 0 mm 765.0 W/m2 CLR
11:26 -3.8 °C -9.7 °C 34486.4 hPa Calm     52 % 0 mm 777.0 W/m2 CLR
11:31 -3.7 °C -9.8 °C 34486.4 hPa Calm     51 % 0 mm 680.0 W/m2 CLR
11:36 -3.7 °C -9.9 °C 34486.4 hPa Calm     50 % 0 mm 780.0 W/m2 CLR
11:41 -3.4 °C -9.8 °C 34486.4 hPa Calm     49 % 0 mm 795.0 W/m2 CLR
11:46 -3.2 °C -9.8 °C 34486.4 hPa ESE 6 km/h 6 km/h 48 % 0 mm 802.0 W/m2 CLR
11:51 -3 °C -9.8 °C 34486.4 hPa ENE 9 km/h 9 km/h 47 % 0 mm 812.0 W/m2 CLR
11:56 -3 °C -9.8 °C 34486.4 hPa ENE 11.9 km/h 11.9 km/h 47 % 0 mm 821.0 W/m2 CLR
12:01 -2.9 °C -9.8 °C 34486.4 hPa Calm     47 % 0 mm 830.0 W/m2 CLR
12:06 -2.9 °C -10.1 °C 34486.4 hPa Calm     45 % 0 mm 842.0 W/m2 CLR
12:11 -3 °C -10.2 °C 34486.4 hPa Calm     45 % 0 mm 844.0 W/m2 CLR
12:16 -2.8 °C -10.4 °C 34476.3 hPa ESE 9 km/h 9 km/h 43 % 0 mm 858.0 W/m2 CLR
12:21 -2.9 °C -10.4 °C 34476.3 hPa Calm     43 % 0 mm 861.0 W/m2 CLR
12:26 -2.8 °C -10.4 °C 34476.3 hPa Calm     43 % 0 mm 868.0 W/m2 CLR
12:31 -2.7 °C -10.5 °C 34476.3 hPa South 11.9 km/h 11.9 km/h 42 % 0 mm 877.0 W/m2 CLR
12:37 -2.7 °C -10.5 °C 34476.3 hPa Calm     42 % 0 mm 877.0 W/m2 CLR
12:41 -2.6 °C -10.1 °C 34476.3 hPa East 12.9 km/h 12.9 km/h 43 % 0 mm 888.0 W/m2 CLR
12:46 -2.3 °C -10.2 °C 34476.3 hPa ENE 9 km/h 9 km/h 42 % 0 mm 898.0 W/m2 CLR
12:57 -2.2 °C -10.4 °C 34462.7 hPa Calm     40 % 0 mm 907.0 W/m2 CLR
13:02 -2.1 °C -10.2 °C 34462.7 hPa Calm     41 % 0 mm 914.0 W/m2 CLR
13:07 -1.9 °C -10.1 °C 34462.7 hPa WNW 12.9 km/h 12.9 km/h 41 % 0 mm 914.0 W/m2 CLR
13:12 -1.8 °C -10.1 °C 34462.7 hPa NNW 2.6 km/h   40 % 0 mm 921.0 W/m2 CLR
13:17 -1.8 °C -10.3 °C 34462.7 hPa NNE 9 km/h 9 km/h 39 % 0 mm 930.0 W/m2 CLR
13:22 -1.9 °C -10.2 °C 34462.7 hPa NNE 15.6 km/h 15.6 km/h 40 % 0 mm 930.0 W/m2 CLR
13:27 -2.1 °C -10.3 °C 34452.6 hPa NNE 9 km/h   40 % 0 mm 921.0 W/m2 CLR
13:32 -1.9 °C -10.2 °C 34452.6 hPa Calm     40 % 0 mm 933.0 W/m2 CLR
13:37 -1.7 °C -10.2 °C 34452.6 hPa NNE 17.9 km/h 17.9 km/h 39 % 0 mm 933.0 W/m2 CLR
13:42 -1.5 °C -10.5 °C 34452.6 hPa SSE 11.9 km/h 11.9 km/h 37 % 0 mm 940.0 W/m2 CLR
13:47 -1.5 °C -11.2 °C 34452.6 hPa ENE 15 km/h 15 km/h 34 % 0 mm 967.0 W/m2 CLR
13:52 -1.6 °C -12.1 °C 34452.6 hPa Calm     31 % 0 mm 898.0 W/m2 CLR
13:57 -1.6 °C -12.6 °C 34442.4 hPa NE 17.9 km/h 17.9 km/h 29 % 0 mm 898.0 W/m2 CLR
14:02 -1.6 °C -11.6 °C 34442.4 hPa Calm     33 % 0 mm 1000.0 W/m2 CLR
14:07 -1.5 °C -11.7 °C 34442.4 hPa Calm     32 % 0 mm 1011.0 W/m2 CLR
14:12 -1.4 °C -11.4 °C 34442.4 hPa NE 23.8 km/h 23.8 km/h 33 % 0 mm 1018.0 W/m2 CLR
14:17 -1.3 °C -11.5 °C 34428.8 hPa NNE 26.9 km/h 26.9 km/h 32 % 0 mm 1025.0 W/m2 CLR
14:22 -1.2 °C -11.5 °C 34428.8 hPa NNE 26.9 km/h 26.9 km/h 32 % 0 mm 970.0 W/m2 CLR
14:27 -1.2 °C -11.5 °C 34428.8 hPa NNE 15 km/h 15 km/h 32 % 0 mm 981.0 W/m2 CLR
14:32 -1.2 °C -11.5 °C 34428.8 hPa Calm     32 % 0 mm 937.0 W/m2 CLR
14:37 -1.1 °C -11.4 °C 34428.8 hPa ENE 20.9 km/h 20.9 km/h 32 % 0 mm 951.0 W/m2 CLR
14:42 -1 °C -11.6 °C 34428.8 hPa NE 33.6 km/h 33.6 km/h 31 % 0 mm 942.0 W/m2 CLR
14:47 -1.3 °C -11.8 °C 34428.8 hPa Calm     31 % 0 mm 664.0 W/m2 CLR
14:52 -1.3 °C -11.8 °C 34428.8 hPa ENE 9 km/h 9 km/h 31 % 0 mm 904.0 W/m2 CLR
14:57 -1.2 °C -11.9 °C 34418.7 hPa ESE 3.1 km/h 3.1 km/h 30 % 0 mm 1005.0 W/m2 CLR
15:02 -1.1 °C -11.9 °C 34418.7 hPa East 11.9 km/h 11.9 km/h 30 % 0 mm 1005.0 W/m2 CLR
15:07 -1 °C -11.8 °C 34418.7 hPa East 11.9 km/h 11.9 km/h 30 % 0 mm 710.0 W/m2 CLR
15:12 -1 °C -11.8 °C 34418.7 hPa ENE 23.8 km/h 23.8 km/h 30 % 0 mm 710.0 W/m2 CLR
15:17 -1.2 °C -12.1 °C 34418.7 hPa Calm     30 % 0 mm 926.0 W/m2 CLR
15:22 -1 °C -11.8 °C 34405.1 hPa NE 11.9 km/h 11.9 km/h 30 % 0 mm 926.0 W/m2 CLR
15:27 -0.7 °C -11.8 °C 34405.1 hPa East 12.9 km/h 12.9 km/h 29 % 0 mm 902.0 W/m2 CLR
15:32 -0.7 °C -11.9 °C 34405.1 hPa NE 17.9 km/h 17.9 km/h 29 % 0 mm 898.0 W/m2 CLR
15:37 -0.6 °C -12.1 °C 34405.1 hPa ENE 23.8 km/h 23.8 km/h 28 % 0 mm 912.0 W/m2 CLR
15:42 -0.5 °C -12.3 °C 34405.1 hPa ENE 29.8 km/h 29.8 km/h 27 % 0 mm 889.0 W/m2 CLR
15:47 -0.6 °C -12.1 °C 34405.1 hPa East 17.9 km/h 17.9 km/h 28 % 0 mm 884.0 W/m2 CLR
15:52 -0.4 °C -11.9 °C 34405.1 hPa Calm     28 % 0 mm 870.0 W/m2 CLR
15:57 -0.3 °C -12.4 °C 34405.1 hPa East 9 km/h 9 km/h 26 % 0 mm 854.0 W/m2 CLR
16:02 -0.6 °C -12.3 °C 34395 hPa ESE 15 km/h 15 km/h 27 % 0 mm 844.0 W/m2 CLR
16:07 -0.4 °C -12.2 °C 34395 hPa ENE 11.9 km/h 11.9 km/h 27 % 0 mm 846.0 W/m2 CLR
16:12 -0.4 °C -11.6 °C 34395 hPa NNW 20.9 km/h 20.9 km/h 29 % 0 mm 844.0 W/m2 CLR
16:17 -0.3 °C -11 °C 34384.8 hPa ENE 17.9 km/h 17.9 km/h 31 % 0 mm 837.0 W/m2 CLR
16:22 -0.4 °C -11.1 °C 34384.8 hPa ENE 9 km/h 9 km/h 31 % 0 mm 831.0 W/m2 CLR
16:27 -0.7 °C -10.5 °C 34384.8 hPa SE 35.7 km/h 35.7 km/h 34 % 0 mm 861.0 W/m2 CLR
16:32 -1.1 °C -10.6 °C 34384.8 hPa SSE 11.9 km/h 11.9 km/h 35 % 0 mm 872.0 W/m2 CLR
16:37 -1.1 °C -10.6 °C 34384.8 hPa Calm     35 % 0 mm 877.0 W/m2 CLR
16:42 -1 °C -10.1 °C 34384.8 hPa ESE 38.8 km/h 38.8 km/h 37 % 0 mm 241.0 W/m2 CLR
16:47 -1.2 °C -10.4 °C 34384.8 hPa ESE 29.8 km/h 29.8 km/h 36 % 0 mm 281.0 W/m2 CLR
16:52 -1.6 °C -10.4 °C 34384.8 hPa SE 32.8 km/h 32.8 km/h 38 % 0 mm 236.0 W/m2 CLR
16:57 -1.6 °C -10.2 °C 34384.8 hPa South 38.8 km/h 38.8 km/h 39 % 0 mm 853.0 W/m2 CLR
17:02 -1.6 °C -10.2 °C 34384.8 hPa South 29.8 km/h 29.8 km/h 39 % 0 mm 861.0 W/m2 CLR
17:07 -1.4 °C -10.2 °C 34384.8 hPa SSE 44.7 km/h 44.7 km/h 38 % 0 mm 802.0 W/m2 CLR
17:12 -1.4 °C -10 °C 34384.8 hPa ESE 31.1 km/h 31.1 km/h 39 % 0 mm 773.0 W/m2 CLR
17:17 -1.4 °C -10.2 °C 34371.3 hPa SSE 29.8 km/h 29.8 km/h 38 % 0 mm 742.0 W/m2 CLR
17:22 -1.6 °C -10.1 °C 34371.3 hPa SE 38.8 km/h 38.8 km/h 39 % 0 mm 744.0 W/m2 CLR
17:27 -1.6 °C -10.2 °C 34371.3 hPa SE 29.8 km/h 29.8 km/h 39 % 0 mm 503.0 W/m2 CLR
17:32 -1.6 °C -9.7 °C 34371.3 hPa SW 29.8 km/h 29.8 km/h 41 % 0 mm 738.0 W/m2 CLR
17:37 -1.8 °C -9.8 °C 34371.3 hPa South 29.8 km/h 29.8 km/h 41 % 0 mm 178.0 W/m2 CLR
17:42 -1.8 °C -9.9 °C 34371.3 hPa South 50.7 km/h 50.7 km/h 41 % 0 mm 636.0 W/m2 CLR
17:47 -1.7 °C -9.8 °C 34371.3 hPa South 38.8 km/h 38.8 km/h 41 % 0 mm 691.0 W/m2 CLR
17:52 -1.7 °C -9.8 °C 34384.8 hPa South 38.8 km/h 38.8 km/h 41 % 0 mm 608.0 W/m2 CLR
17:57 -1.8 °C -9.9 °C 34384.8 hPa South 29.8 km/h 29.8 km/h 41 % 0 mm 628.0 W/m2 CLR
18:02 -1.8 °C -9.9 °C 34384.8 hPa South 47.6 km/h 47.6 km/h 41 % 0 mm 599.0 W/m2 CLR
18:07 -1.9 °C -10.1 °C 34384.8 hPa SSW 28.5 km/h 28.5 km/h 41 % 0 mm 612.0 W/m2 CLR
18:12 -1.8 °C -9.9 °C 34384.8 hPa South 29.8 km/h 29.8 km/h 41 % 0 mm 596.0 W/m2 CLR
18:17 -1.7 °C -9.8 °C 34384.8 hPa SSE 23.8 km/h 23.8 km/h 41 % 0 mm 501.0 W/m2 CLR
18:22 -1.5 °C -10.1 °C 34384.8 hPa SSW 17.9 km/h 17.9 km/h 39 % 0 mm 455.0 W/m2 CLR
18:27 -1.6 °C -10.1 °C 34371.3 hPa SSW 23.8 km/h 23.8 km/h 39 % 0 mm 436.0 W/m2 CLR
18:32 -1.6 °C -10.2 °C 34371.3 hPa South 32.8 km/h 32.8 km/h 39 % 0 mm 424.0 W/m2 CLR
18:37 -1.7 °C -10.2 °C 34371.3 hPa South 18.2 km/h 18.2 km/h 39 % 0 mm 392.0 W/m2 CLR
18:42 -1.7 °C -10.1 °C 34384.8 hPa South 26.9 km/h 26.9 km/h 40 % 0 mm 438.0 W/m2 CLR
18:47 -1.8 °C -10.3 °C 34371.3 hPa South 20.9 km/h 20.9 km/h 39 % 0 mm 432.0 W/m2 CLR
18:52 -1.8 °C -10.3 °C 34384.8 hPa SSE 25.9 km/h 25.9 km/h 39 % 0 mm 341.0 W/m2 CLR
18:57 -1.8 °C -10.3 °C 34384.8 hPa South 26.9 km/h 26.9 km/h 39 % 0 mm 130.0 W/m2 CLR
19:02 -1.8 °C -10.6 °C 34384.8 hPa Calm     38 % 0 mm 135.0 W/m2 CLR
19:07 -1.8 °C -10.3 °C 34384.8 hPa SSE 18.2 km/h 18.2 km/h 39 % 0 mm 120.0 W/m2 CLR
19:12 -1.8 °C -10.3 °C 34384.8 hPa SE 11.9 km/h 11.9 km/h 39 % 0 mm 128.0 W/m2 CLR
19:17 -1.9 °C -10 °C 34371.3 hPa ESE 20.8 km/h 20.8 km/h 41 % 0 mm 121.0 W/m2 CLR
19:22 -2 °C -10.2 °C 34371.3 hPa ESE 23.8 km/h 23.8 km/h 40 % 0 mm 107.0 W/m2 CLR
19:27 -2.1 °C -10.3 °C 34384.8 hPa ESE 26.9 km/h 26.9 km/h 40 % 0 mm 107.0 W/m2 CLR
19:32 -2.1 °C -9.9 °C 34384.8 hPa East 23.8 km/h 23.8 km/h 42 % 0 mm 83.0 W/m2 CLR
19:37 -2.2 °C -10.1 °C 34384.8 hPa East 23.8 km/h 23.8 km/h 42 % 0 mm 47.0 W/m2 FEW
19:42 -2.3 °C -10.2 °C 34384.8 hPa SE 26.9 km/h 26.9 km/h 42 % 0 mm 47.0 W/m2 SCT
19:47 -2.3 °C -10.2 °C 34384.8 hPa ESE 17.9 km/h 17.9 km/h 42 % 0 mm 44.0 W/m2 SCT
19:53 -2.4 °C -10 °C 34384.8 hPa SE 26.9 km/h 26.9 km/h 43 % 0 mm 58.0 W/m2 SCT
19:58 -2.5 °C -10.1 °C 34395 hPa South 29.8 km/h 29.8 km/h 43 % 0 mm 79.0 W/m2 SCT
20:03 -2.6 °C -10.1 °C 34395 hPa SE 33.6 km/h 33.6 km/h 44 % 0 mm 74.0 W/m2 FEW
20:08 -2.7 °C -9.9 °C 34384.8 hPa SSE 26.9 km/h 26.9 km/h 45 % 0 mm 53.0 W/m2 FEW
20:13 -2.8 °C -9.8 °C 34395 hPa ESE 18.2 km/h 18.2 km/h 46 % 0 mm 40.0 W/m2 SCT
20:18 -2.9 °C -9.9 °C 34395 hPa SE 17.9 km/h 17.9 km/h 46 % 0 mm 30.0 W/m2 BKN
20:23 -2.9 °C -9.7 °C 34395 hPa South 11.9 km/h 11.9 km/h 47 % 0 mm 23.0 W/m2 BKN
20:28 -2.9 °C -9.7 °C 34405.1 hPa SSW 18.2 km/h 18.2 km/h 47 % 0 mm 19.0 W/m2 BKN
20:33 -3 °C -9.6 °C 34405.1 hPa SW 23.8 km/h 23.8 km/h 48 % 0 mm 12.0 W/m2 BKN
20:38 -3.2 °C -9.6 °C 34418.7 hPa SSW 38.8 km/h 38.8 km/h 49 % 0 mm 11.0 W/m2 BKN
20:43 -3.7 °C -9.1 °C 34428.8 hPa West 56.6 km/h 56.6 km/h 55 % 0 mm 12.0 W/m2 BKN
20:48 -4.3 °C -8.6 °C 34428.8 hPa WSW 35.7 km/h 35.7 km/h 62 % 0 mm 25.0 W/m2 BKN
20:53 -4.7 °C -8.7 °C 34418.7 hPa SW 29.8 km/h 29.8 km/h 64 % 0 mm 42.0 W/m2 BKN
20:58 -4.8 °C -8.8 °C 34418.7 hPa WSW 17.9 km/h 17.9 km/h 64 % 0 mm 33.0 W/m2 BKN
21:03 -4.8 °C -8.8 °C 34418.7 hPa WSW 15 km/h 15 km/h 64 % 0 mm 25.0 W/m2 BKN
21:08 -4.9 °C -8.9 °C 34418.7 hPa West 17.9 km/h 17.9 km/h 64 % 0 mm 16.0 W/m2 BKN
21:13 -5 °C -8.8 °C 34418.7 hPa WSW 15 km/h 15 km/h 65 % 0 mm 11.0 W/m2 BKN
21:18 -5.1 °C -8.9 °C 34418.7 hPa West 15 km/h 15.3 km/h 65 % 0 mm 5.0 W/m2 BKN
21:23 -4.9 °C -8.9 °C 34418.7 hPa WSW 11.9 km/h 11.9 km/h 64 % 0 mm 0.0 W/m2 OVC
21:28 -4.9 °C -8.9 °C 34418.7 hPa WSW 9 km/h   64 % 0 mm 0.0 W/m2 OVC
21:33 -4.9 °C -9 °C 34418.7 hPa Calm     63 % 0 mm 0.0 W/m2 OVC
21:38 -4.8 °C -9.1 °C 34418.7 hPa Calm     62 % 0 mm 0.0 W/m2 CLR
21:43 -4.7 °C -9 °C 34418.7 hPa South 26.9 km/h 26.9 km/h 62 % 0 mm 0.0 W/m2 CLR
21:48 -4.9 °C -9 °C 34405.1 hPa South 29.8 km/h 29.8 km/h 63 % 0 mm 0.0 W/m2 CLR
21:53 -4.9 °C -9.1 °C 34405.1 hPa SE 18.2 km/h 18.2 km/h 63 % 0 mm 0.0 W/m2 CLR
21:58 -5 °C -9.1 °C 34405.1 hPa SSE 23.8 km/h 23.8 km/h 63 % 0 mm 0.0 W/m2 CLR
22:03 -5 °C -9 °C 34418.7 hPa South 29.8 km/h 29.8 km/h 64 % 0 mm 0.0 W/m2 CLR
22:08 -5.2 °C -8.8 °C 34418.7 hPa South 29.8 km/h 29.8 km/h 66 % 0 mm 0.0 W/m2 CLR
22:13 -5.3 °C -8.9 °C 34418.7 hPa SSE 20.9 km/h 20.9 km/h 67 % 0 mm 0.0 W/m2 CLR
22:18 -5.4 °C -8.9 °C 34418.7 hPa South 15 km/h 15 km/h 67 % 0 mm 0.0 W/m2 CLR
22:23 -5.4 °C -9.2 °C 34418.7 hPa Calm     65 % 0 mm 0.0 W/m2 CLR
22:28 -5.4 °C -9.2 °C 34428.8 hPa Calm     65 % 0 mm 0.0 W/m2 CLR
22:33 -5.4 °C -9.2 °C 34428.8 hPa Calm     65 % 0 mm 0.0 W/m2 CLR
22:38 -5.4 °C -9.2 °C 34428.8 hPa Calm     66 % 0 mm 0.0 W/m2 CLR
22:43 -5.5 °C -9.1 °C 34428.8 hPa Calm     67 % 0 mm 0.0 W/m2 CLR
22:48 -5.6 °C -9.1 °C 34428.8 hPa Calm     67 % 0 mm 0.0 W/m2 CLR
22:53 -5.6 °C -9.1 °C 34428.8 hPa Calm     67 % 0 mm 0.0 W/m2 CLR
22:58 -5.6 °C -9.3 °C 34428.8 hPa WSW 9 km/h 9 km/h 66 % 0 mm 0.0 W/m2 CLR
23:03 -5.6 °C -9.4 °C 34428.8 hPa Calm     65 % 0 mm 0.0 W/m2 CLR
23:08 -5.6 °C -9.4 °C 34428.8 hPa Calm     65 % 0 mm 0.0 W/m2 CLR
23:13 -5.6 °C -9.4 °C 34428.8 hPa Calm     65 % 0 mm 0.0 W/m2 CLR
23:18 -5.7 °C -9.3 °C 34428.8 hPa Calm     66 % 0 mm 0.0 W/m2 CLR
23:23 -5.8 °C -9.3 °C 34428.8 hPa Calm     67 % 0 mm 0.0 W/m2 CLR
23:28 -5.9 °C -9.3 °C 34442.4 hPa Calm     68 % 0 mm 0.0 W/m2 CLR
23:33 -5.9 °C -9.3 °C 34442.4 hPa Calm     68 % 0 mm 0.0 W/m2 CLR
23:38 -5.9 °C -9.4 °C 34442.4 hPa Calm     67 % 0 mm 0.0 W/m2 CLR
23:43 -5.9 °C -9.3 °C 34428.8 hPa Calm     68 % 0 mm 0.0 W/m2 CLR
23:44 -5.9 °C -9.4 °C 34428.8 hPa Calm     68 % 0 mm 0.0 W/m2 CLR
23:49 -6 °C -9.4 °C 34428.8 hPa Calm     68 % 0 mm 0.0 W/m2 CLR
23:54 -6.1 °C -9.6 °C 34428.8 hPa SE 9 km/h 9 km/h 67 % 0 mm 0.0 W/m2 CLR
23:59 -6.1 °C -9.7 °C 34428.8 hPa Calm     67 % 0 mm 0.0 W/m2 CLR
Lo Temps de Massalio
Compliments of Weather Underground - 1.25 mb